Time,TemperatureF,DewpointF,PressureIn,WindDirection,WindDirectionDegrees,WindSpeedMPH,WindSpeedGustMPH,Humidity,HourlyPrecipIn,Conditions,Clouds,dailyrainin,SoftwareType,DateUTC
2013-12-09 00:07:00,37.8,36.0,30.20,West,272,1.0,7.0,93,0.03,,,0.08,weatherlink.com 1.10,2013-12-09 05:07:00,
2013-12-09 00:22:00,37.7,36.0,30.20,WNW,300,0.0,2.0,93,0.02,,,0.08,weatherlink.com 1.10,2013-12-09 05:22:00,
2013-12-09 00:37:00,37.8,36.0,30.19,WSW,245,0.0,2.0,93,0.01,,,0.08,weatherlink.com 1.10,2013-12-09 05:37:00,
2013-12-09 00:52:00,37.9,36.0,30.20,WSW,256,0.0,3.0,93,0.01,,,0.09,weatherlink.com 1.10,2013-12-09 05:52:00,
2013-12-09 01:07:00,38.5,37.0,30.19,ENE,78,0.0,3.0,94,0.01,,,0.09,weatherlink.com 1.10,2013-12-09 06:07:00,
2013-12-09 01:23:00,38.7,37.0,30.19,East,87,1.0,3.0,94,0.02,,,0.10,weatherlink.com 1.10,2013-12-09 06:23:00,
2013-12-09 01:37:00,38.9,37.0,30.19,ENE,62,0.0,2.0,94,0.03,,,0.12,weatherlink.com 1.10,2013-12-09 06:37:00,
2013-12-09 01:52:00,39.3,38.0,30.17,ENE,62,0.0,0.0,94,0.04,,,0.13,weatherlink.com 1.10,2013-12-09 06:52:00,
2013-12-09 02:07:00,39.6,38.0,30.16,ENE,62,0.0,0.0,94,0.04,,,0.13,weatherlink.com 1.10,2013-12-09 07:07:00,
2013-12-09 02:22:00,40.1,39.0,30.15,SW,231,1.0,3.0,94,0.03,,,0.13,weatherlink.com 1.10,2013-12-09 07:22:00,
2013-12-09 02:37:00,42.3,41.0,30.15,WSW,245,6.0,6.0,95,0.01,,,0.13,weatherlink.com 1.10,2013-12-09 07:37:00,
2013-12-09 02:52:00,47.3,46.0,30.14,NW,315,6.0,8.0,95,0.00,,,0.13,weatherlink.com 1.10,2013-12-09 07:52:00,
2013-12-09 03:08:00,48.1,47.0,30.13,WSW,240,6.0,8.0,95,0.00,,,0.13,weatherlink.com 1.10,2013-12-09 08:08:00,
2013-12-09 03:23:00,48.8,48.0,30.14,West,265,0.0,6.0,95,0.00,,,0.13,weatherlink.com 1.10,2013-12-09 08:23:00,
2013-12-09 03:38:00,49.4,48.0,30.15,West,278,3.0,4.0,93,0.01,,,0.14,weatherlink.com 1.10,2013-12-09 08:38:00,
2013-12-09 03:53:00,50.8,49.0,30.14,WSW,244,0.0,8.0,94,0.01,,,0.14,weatherlink.com 1.10,2013-12-09 08:53:00,
2013-12-09 04:08:00,52.2,50.0,30.14,West,281,4.0,8.0,93,0.02,,,0.15,weatherlink.com 1.10,2013-12-09 09:08:00,
2013-12-09 04:23:00,52.6,50.0,30.11,WSW,244,1.0,5.0,91,0.04,,,0.17,weatherlink.com 1.10,2013-12-09 09:23:00,
2013-12-09 04:38:00,52.0,50.0,30.09,ENE,72,0.0,2.0,92,0.03,,,0.17,weatherlink.com 1.10,2013-12-09 09:38:00,
2013-12-09 04:53:00,51.9,50.0,30.10,West,267,3.0,4.0,92,0.03,,,0.17,weatherlink.com 1.10,2013-12-09 09:53:00,
2013-12-09 05:08:00,52.0,50.0,30.09,WSW,250,5.0,6.0,91,0.02,,,0.17,weatherlink.com 1.10,2013-12-09 10:08:00,
2013-12-09 05:23:00,51.9,49.0,30.09,WSW,244,0.0,2.0,91,0.01,,,0.18,weatherlink.com 1.10,2013-12-09 10:23:00,
2013-12-09 05:38:00,51.5,49.0,30.10,NE,54,0.0,4.0,91,0.01,,,0.18,weatherlink.com 1.10,2013-12-09 10:38:00,
2013-12-09 05:53:00,50.8,49.0,30.10,WSW,248,2.0,5.0,92,0.01,,,0.18,weatherlink.com 1.10,2013-12-09 10:53:00,
2013-12-09 06:08:00,50.3,48.0,30.10,NW,316,0.0,2.0,92,0.01,,,0.18,weatherlink.com 1.10,2013-12-09 11:08:00,
2013-12-09 06:23:00,49.8,48.0,30.11,NW,322,0.0,3.0,92,0.00,,,0.18,weatherlink.com 1.10,2013-12-09 11:23:00,
2013-12-09 06:38:00,50.0,48.0,30.11,West,273,0.0,1.0,93,0.00,,,0.18,weatherlink.com 1.10,2013-12-09 11:38:00,
2013-12-09 06:53:00,49.6,47.0,30.11,ENE,73,0.0,4.0,92,0.00,,,0.18,weatherlink.com 1.10,2013-12-09 11:53:00,
2013-12-09 07:08:00,49.4,48.0,30.12,ENE,71,0.0,2.0,93,0.00,,,0.18,weatherlink.com 1.10,2013-12-09 12:08:00,
2013-12-09 07:23:00,49.0,47.0,30.12,East,94,0.0,3.0,92,0.00,,,0.18,weatherlink.com 1.10,2013-12-09 12:23:00,
2013-12-09 07:38:00,48.4,46.0,30.12,East,85,1.0,5.0,92,0.00,,,0.18,weatherlink.com 1.10,2013-12-09 12:38:00,
2013-12-09 07:53:00,47.8,46.0,30.12,East,85,1.0,2.0,92,0.01,,,0.19,weatherlink.com 1.10,2013-12-09 12:53:00,
2013-12-09 08:08:00,47.6,46.0,30.12,East,85,0.0,2.0,93,0.01,,,0.19,weatherlink.com 1.10,2013-12-09 13:08:00,
2013-12-09 08:24:00,47.3,45.0,30.12,East,84,3.0,3.0,93,0.01,,,0.00,weatherlink.com 1.10,2013-12-09 13:24:00,
2013-12-09 08:38:00,47.3,45.0,30.12,East,84,0.0,3.0,93,0.01,,,0.00,weatherlink.com 1.10,2013-12-09 13:38:00,
2013-12-09 08:53:00,47.2,45.0,30.14,East,100,0.0,3.0,93,0.00,,,0.00,weatherlink.com 1.10,2013-12-09 13:53:00,
2013-12-09 09:08:00,46.5,45.0,30.14,East,90,1.0,7.0,93,0.00,,,0.00,weatherlink.com 1.10,2013-12-09 14:08:00,
2013-12-09 09:23:00,45.9,44.0,30.16,ESE,119,2.0,9.0,93,0.00,,,0.00,weatherlink.com 1.10,2013-12-09 14:23:00,
2013-12-09 09:38:00,45.5,44.0,30.16,East,88,0.0,4.0,93,0.00,,,0.00,weatherlink.com 1.10,2013-12-09 14:38:00,
2013-12-09 09:53:00,45.6,44.0,30.16,ESE,108,0.0,6.0,93,0.00,,,0.00,weatherlink.com 1.10,2013-12-09 14:53:00,
2013-12-09 10:08:00,46.1,45.0,30.17,East,100,0.0,3.0,94,0.00,,,0.00,weatherlink.com 1.10,2013-12-09 15:08:00,
2013-12-09 10:23:00,46.1,45.0,30.17,ESE,113,0.0,6.0,94,0.00,,,0.00,weatherlink.com 1.10,2013-12-09 15:23:00,
2013-12-09 10:38:00,46.4,45.0,30.16,ENE,74,3.0,7.0,94,0.00,,,0.00,weatherlink.com 1.10,2013-12-09 15:38:00,
2013-12-09 10:53:00,46.9,45.0,30.16,ENE,77,1.0,5.0,94,0.00,,,0.00,weatherlink.com 1.10,2013-12-09 15:53:00,
2013-12-09 11:08:00,47.6,46.0,30.16,NE,55,0.0,7.0,94,0.00,,,0.00,weatherlink.com 1.10,2013-12-09 16:08:00,
2013-12-09 11:23:00,48.2,46.0,30.16,ESE,112,0.0,6.0,93,0.00,,,0.00,weatherlink.com 1.10,2013-12-09 16:23:00,
2013-12-09 11:38:00,48.3,46.0,30.14,East,97,0.0,7.0,91,0.00,,,0.00,weatherlink.com 1.10,2013-12-09 16:38:00,
2013-12-09 11:53:00,48.7,46.0,30.13,East,94,1.0,7.0,91,0.00,,,0.00,weatherlink.com 1.10,2013-12-09 16:53:00,
2013-12-09 12:08:00,49.0,46.0,30.12,East,92,1.0,5.0,90,0.00,,,0.00,weatherlink.com 1.10,2013-12-09 17:08:00,
2013-12-09 12:23:00,49.4,46.0,30.12,East,98,0.0,8.0,89,0.00,,,0.00,weatherlink.com 1.10,2013-12-09 17:23:00,
2013-12-09 12:39:00,50.0,47.0,30.11,East,92,1.0,7.0,89,0.00,,,0.00,weatherlink.com 1.10,2013-12-09 17:39:00,
2013-12-09 12:54:00,50.3,47.0,30.11,East,96,2.0,7.0,88,0.00,,,0.00,weatherlink.com 1.10,2013-12-09 17:54:00,
2013-12-09 13:11:00,50.3,47.0,30.11,East,97,2.0,7.0,88,0.00,,,0.00,weatherlink.com 1.10,2013-12-09 18:11:00,
2013-12-09 13:24:00,50.2,47.0,30.11,East,84,2.0,10.0,88,0.00,,,0.00,weatherlink.com 1.10,2013-12-09 18:24:00,
2013-12-09 13:39:00,49.7,47.0,30.11,East,85,1.0,9.0,89,0.00,,,0.00,weatherlink.com 1.10,2013-12-09 18:39:00,
2013-12-09 13:54:00,49.1,46.0,30.11,East,101,8.0,11.0,89,0.00,,,0.00,weatherlink.com 1.10,2013-12-09 18:54:00,
2013-12-09 14:09:00,48.5,46.0,30.11,SE,132,3.0,10.0,89,0.00,,,0.00,weatherlink.com 1.10,2013-12-09 19:09:00,
2013-12-09 14:24:00,48.6,46.0,30.11,East,84,2.0,10.0,89,0.00,,,0.00,weatherlink.com 1.10,2013-12-09 19:24:00,
2013-12-09 14:39:00,49.0,46.0,30.11,ESE,109,0.0,6.0,89,0.00,,,0.00,weatherlink.com 1.10,2013-12-09 19:39:00,
2013-12-09 14:54:00,49.1,46.0,30.10,ESE,107,2.0,7.0,88,0.00,,,0.00,weatherlink.com 1.10,2013-12-09 19:54:00,
2013-12-09 15:09:00,48.9,46.0,30.10,East,101,5.0,7.0,88,0.00,,,0.00,weatherlink.com 1.10,2013-12-09 20:09:00,
2013-12-09 15:24:00,48.6,45.0,30.09,NNE,25,4.0,8.0,88,0.00,,,0.00,weatherlink.com 1.10,2013-12-09 20:24:00,
2013-12-09 15:39:00,48.1,45.0,30.09,East,101,0.0,10.0,89,0.00,,,0.00,weatherlink.com 1.10,2013-12-09 20:39:00,
2013-12-09 15:54:00,47.6,45.0,30.10,ESE,105,2.0,5.0,89,0.00,,,0.00,weatherlink.com 1.10,2013-12-09 20:54:00,
2013-12-09 16:09:00,47.8,45.0,30.10,East,98,5.0,9.0,90,0.00,,,0.00,weatherlink.com 1.10,2013-12-09 21:09:00,
2013-12-09 16:24:00,47.7,45.0,30.10,East,95,1.0,7.0,89,0.00,,,0.00,weatherlink.com 1.10,2013-12-09 21:24:00,
2013-12-09 16:39:00,47.6,45.0,30.11,ESE,104,0.0,3.0,89,0.00,,,0.00,weatherlink.com 1.10,2013-12-09 21:39:00,
2013-12-09 16:56:00,47.6,45.0,30.11,SW,234,0.0,4.0,89,0.00,,,0.00,weatherlink.com 1.10,2013-12-09 21:56:00,
2013-12-09 17:09:00,47.6,45.0,30.11,East,93,1.0,3.0,89,0.00,,,0.00,weatherlink.com 1.10,2013-12-09 22:09:00,
2013-12-09 17:24:00,47.5,45.0,30.10,WSW,244,0.0,1.0,89,0.00,,,0.00,weatherlink.com 1.10,2013-12-09 22:24:00,
2013-12-09 17:39:00,47.4,44.0,30.11,WNW,300,0.0,2.0,89,0.00,,,0.00,weatherlink.com 1.10,2013-12-09 22:39:00,
2013-12-09 17:54:00,47.2,44.0,30.12,East,94,1.0,7.0,88,0.00,,,0.00,weatherlink.com 1.10,2013-12-09 22:54:00,
2013-12-09 18:09:00,47.2,44.0,30.12,ESE,103,0.0,5.0,87,0.00,,,0.00,weatherlink.com 1.10,2013-12-09 23:09:00,
2013-12-09 18:24:00,47.1,44.0,30.13,WSW,252,3.0,7.0,87,0.00,,,0.00,weatherlink.com 1.10,2013-12-09 23:24:00,
2013-12-09 18:39:00,47.0,43.0,30.13,East,101,1.0,5.0,86,0.00,,,0.00,weatherlink.com 1.10,2013-12-09 23:39:00,
2013-12-09 18:54:00,46.6,43.0,30.13,NW,316,0.0,7.0,86,0.00,,,0.00,weatherlink.com 1.10,2013-12-09 23:54:00,
2013-12-09 19:09:00,46.3,42.0,30.13,ESE,119,0.0,6.0,85,0.00,,,0.00,weatherlink.com 1.10,2013-12-10 00:09:00,
2013-12-09 19:24:00,46.0,42.0,30.13,SE,125,1.0,7.0,86,0.00,,,0.00,weatherlink.com 1.10,2013-12-10 00:24:00,
2013-12-09 19:39:00,45.4,42.0,30.13,East,92,5.0,5.0,87,0.00,,,0.00,weatherlink.com 1.10,2013-12-10 00:39:00,
2013-12-09 19:54:00,44.7,41.0,30.13,ESE,105,1.0,4.0,88,0.00,,,0.00,weatherlink.com 1.10,2013-12-10 00:54:00,
2013-12-09 20:09:00,44.0,41.0,30.13,East,97,0.0,6.0,89,0.00,,,0.00,weatherlink.com 1.10,2013-12-10 01:09:00,
2013-12-09 20:24:00,44.0,41.0,30.13,East,92,0.0,5.0,89,0.00,,,0.00,weatherlink.com 1.10,2013-12-10 01:24:00,
2013-12-09 20:39:00,43.9,41.0,30.13,East,94,2.0,6.0,89,0.00,,,0.00,weatherlink.com 1.10,2013-12-10 01:39:00,
2013-12-09 20:54:00,43.7,41.0,30.12,East,95,0.0,3.0,89,0.00,,,0.00,weatherlink.com 1.10,2013-12-10 01:54:00,
2013-12-09 21:09:00,43.1,40.0,30.12,ENE,73,0.0,2.0,89,0.00,,,0.00,weatherlink.com 1.10,2013-12-10 02:09:00,
2013-12-09 21:24:00,42.1,39.0,30.11,ENE,74,0.0,0.0,90,0.00,,,0.00,weatherlink.com 1.10,2013-12-10 02:24:00,
2013-12-09 21:39:00,40.9,38.0,30.11,ENE,74,0.0,1.0,88,0.00,,,0.00,weatherlink.com 1.10,2013-12-10 02:39:00,
2013-12-09 21:54:00,40.3,38.0,30.10,ENE,73,0.0,2.0,90,0.00,,,0.00,weatherlink.com 1.10,2013-12-10 02:54:00,
2013-12-09 22:09:00,39.4,37.0,30.09,ENE,74,0.0,1.0,91,0.00,,,0.00,weatherlink.com 1.10,2013-12-10 03:09:00,
2013-12-09 22:24:00,38.4,36.0,30.08,ENE,74,0.0,1.0,90,0.00,,,0.00,weatherlink.com 1.10,2013-12-10 03:24:00,
2013-12-09 22:39:00,37.8,36.0,30.07,ENE,73,0.0,1.0,91,0.00,,,0.00,weatherlink.com 1.10,2013-12-10 03:39:00,
2013-12-09 22:54:00,37.7,36.0,30.07,ENE,73,0.0,0.0,92,0.00,,,0.00,weatherlink.com 1.10,2013-12-10 03:54:00,
2013-12-09 23:09:00,37.7,36.0,30.06,ENE,73,0.0,2.0,92,0.00,,,0.00,weatherlink.com 1.10,2013-12-10 04:09:00,
2013-12-09 23:24:00,37.9,36.0,30.04,ENE,74,0.0,0.0,93,0.00,,,0.00,weatherlink.com 1.10,2013-12-10 04:24:00,
2013-12-09 23:39:00,38.1,36.0,30.04,ENE,74,0.0,0.0,93,0.00,,,0.00,weatherlink.com 1.10,2013-12-10 04:39:00,
2013-12-09 23:54:00,38.3,37.0,30.03,ENE,73,0.0,0.0,93,0.00,,,0.00,weatherlink.com 1.10,2013-12-10 04:54:00,